Regional Weather Roundup
Issued by NWS

Home | Current Version | Previous Version | Graphics & Text | Print | Product List | Glossary On
Versions: 1 2 3 4 5 6 7 8 9 10 11 12 13 14 15 16 17 18 19 20 21 22 23 24 25 26 27 28 29 30 31 32 33 34 35 36 37 38 39 40 41 42 43 44 45 46 47 48 49 50
000
ASUS43 KOAX 131910
RWRNE

WEATHER ROUNDUP FOR NEBRASKA
NATIONAL WEATHER SERVICE OMAHA NE
200 PM CDT SUN JUL 13 2014

NOTES: SATELLITE DATA IS BEING USED TO AUGMENT CLOUD COVER ABOVE
       12000 FEET.
       "FAIR" INDICATES FEW OR NO CLOUDS BELOW 12,000 FEET WITH NO
       SIGNIFICANT WEATHER AND/OR OBSTRUCTIONS TO VISIBILITY.

  * THESE STATIONS DO NOT REPORT WEATHER SUCH AS RAIN...SNOW OR FOG.

NEZ001>004-019>022-054>056-132000-
NEBRASKA PANHANDLE

CITY           SKY/WX    TMP DP  RH WIND       PRES   REMARKS
SCOTTSBLUFF    SUNNY     84  58  40 SE6       30.21F
ALLIANCE       MOSUNNY   84  49  29 VRB6      30.20F
CHADRON        SUNNY     86  55  34 VRB5      30.15F
KIMBALL        CLOUDY    78  57  49 E3        30.26F
SIDNEY         MOSUNNY   86  56  35 N3        30.24F
$$

NEZ057>060-069>072-079>082-132000-
SOUTHWEST NEBRASKA

CITY           SKY/WX    TMP DP  RH WIND       PRES   REMARKS
NORTH PLATTE   SUNNY     86  58  38 NW8       30.14F
IMPERIAL       LGT RAIN  84  59  42 NW7       30.18F
LEXINGTON      SUNNY     86  60  40 NW5       30.14S
MCCOOK         MOSUNNY   88  57  34 NW8       30.15F
OGALLALA       MOSUNNY   83  55  38 NE8       30.18F
$$

NEZ005>010-023>029-035>040-094-132000-
NORTH CENTRAL NEBRASKA

CITY           SKY/WX    TMP DP  RH WIND       PRES   REMARKS
VALENTINE      SUNNY     84  54  35 NW12      30.13F
AINSWORTH      MOSUNNY   82  49  32 N8G17     30.13F
BROKEN BOW     MOSUNNY   84  65  52 NW9       30.12F
O`NEILL        PTSUNNY   82  62  50 NW8       30.08F
ORD            MOSUNNY   84  64  50 NW12      30.07F
THEDFORD       SUNNY     86  59  39 NW12      30.15F
$$

NEZ041-046>049-061>064-073>077-083>087-132000-
SOUTH CENTRAL NEBRASKA

CITY           SKY/WX    TMP DP  RH WIND       PRES   REMARKS
GRAND ISLAND   MOSUNNY   87  63  44 NW5       30.09F
AURORA         MOSUNNY   84  66  53 W6        30.08F
HASTINGS       SUNNY     84  59  42 NW7       30.10F
HEBRON         MOSUNNY   86  67  54 CALM      30.08S
HOLDREGE       SUNNY     84  59  43 NW7       30.13F
KEARNEY *      SUNNY     84  57  39 N8        30.12F
YORK           SUNNY     84  63  48 N5        30.07F
$$

NEZ011>018-030>034-042>045-132000-
NORTHEAST NEBRASKA

CITY           SKY/WX    TMP DP  RH WIND       PRES   REMARKS
NORFOLK        PTSUNNY   82  68  62 VRB6G16   30.04F
ALBION         MOSUNNY   81  64  56 W6        30.07S
BLAIR          PTSUNNY   84  52  32 NW6       30.03F
FREMONT        MOSUNNY   87  64  46 W6        30.03F
TEKAMAH        MOSUNNY   87  67  51 NW9       30.00F HX  90
WAYNE          PTSUNNY   81  70  69 N3        30.04F
$$

NEZ050>053-065>068-078-088>093-132000-
SOUTHEAST NEBRASKA

CITY           SKY/WX    TMP DP  RH WIND       PRES   REMARKS
LINCOLN        SUNNY     90  62  39 NW12      30.04F HX  90
OMAHA EPPLEY   MOSUNNY   87  66  49 W10       30.01F
BEATRICE       MOSUNNY   82  67  60 N5        30.05F
FALLS CITY     MOSUNNY   85  71  63 NE6       30.02F HX  90
NEBRASKA CITY  SUNNY     83  66  55 N6        30.03F
PLATTSMOUTH    SUNNY     86  63  45 NW7       30.03F
$$

NEZ044-045-051>053-067-132000-
OMAHA AREA

CITY           SKY/WX    TMP DP  RH WIND       PRES   REMARKS
OMAHA EPPLEY   MOSUNNY   87  66  49 W10       30.01F
BLAIR          PTSUNNY   84  52  32 NW6       30.03F
FREMONT        MOSUNNY   87  64  46 W6        30.03F
MILLARD        MOSUNNY   86  66  52 W5        30.02F
OFFUTT AFB     SUNNY     86  67  53 NW7       30.02F
PLATTSMOUTH    SUNNY     86  63  45 NW7       30.03F
WAHOO          FAIR      87  65  47 NW6       30.03F
$$


USA.gov is the U.S. government's official web portal to all federal, state and local government web resources and services.